owner,sensor,date,latitude,longitude,relative_humidity,qcFlag 
TCOON,ioos:station:TCOON:146:1,2017-02-01T00:30:00Z,28.1324,-97.0345,86.8,1111122 
TCOON,ioos:station:TCOON:146:1,2017-02-01T02:30:00Z,28.1324,-97.0345,86.1,1111122 
TCOON,ioos:station:TCOON:146:1,2017-02-01T04:30:00Z,28.1324,-97.0345,84.7,1111122 
TCOON,ioos:station:TCOON:146:1,2017-02-01T05:30:00Z,28.1324,-97.0345,85.7,1111122 
TCOON,ioos:station:TCOON:146:1,2017-02-01T07:30:00Z,28.1324,-97.0345,90.8,1111122 
TCOON,ioos:station:TCOON:146:1,2017-02-01T09:30:00Z,28.1324,-97.0345,91.3,1111122 
TCOON,ioos:station:TCOON:146:1,2017-02-01T10:30:00Z,28.1324,-97.0345,92.7,1111122 
TCOON,ioos:station:TCOON:146:1,2017-02-01T12:30:00Z,28.1324,-97.0345,94.0,1111122 
TCOON,ioos:station:TCOON:146:1,2017-02-01T14:30:00Z,28.1324,-97.0345,88.1,1111122 
TCOON,ioos:station:TCOON:146:1,2017-02-01T16:30:00Z,28.1324,-97.0345,78.4,1111122 
TCOON,ioos:station:TCOON:146:1,2017-02-01T17:30:00Z,28.1324,-97.0345,84.1,1111122 
TCOON,ioos:station:TCOON:146:1,2017-02-01T18:30:00Z,28.1324,-97.0345,82.4,1111122 
TCOON,ioos:station:TCOON:146:1,2017-02-01T19:30:00Z,28.1324,-97.0345,79.7,1111122 
TCOON,ioos:station:TCOON:146:1,2017-02-01T21:30:00Z,28.1324,-97.0345,85.4,1111122 
TCOON,ioos:station:TCOON:146:1,2017-02-01T22:30:00Z,28.1324,-97.0345,84.3,1111122 
TCOON,ioos:station:TCOON:146:1,2017-02-02T08:30:00Z,28.1324,-97.0345,97.8,1111122 
TCOON,ioos:station:TCOON:146:1,2017-02-02T10:30:00Z,28.1324,-97.0345,98.4,1111122 
TCOON,ioos:station:TCOON:146:1,2017-02-02T11:30:00Z,28.1324,-97.0345,99.1,1111122 
TCOON,ioos:station:TCOON:146:1,2017-02-02T15:30:00Z,28.1324,-97.0345,99.6,1111122 
TCOON,ioos:station:TCOON:146:1,2017-02-02T16:30:00Z,28.1324,-97.0345,99.3,1111122 
TCOON,ioos:station:TCOON:146:1,2017-02-02T19:30:00Z,28.1324,-97.0345,83.6,1111122 
TCOON,ioos:station:TCOON:146:1,2017-02-02T20:30:00Z,28.1324,-97.0345,73.4,1111122 
TCOON,ioos:station:TCOON:146:1,2017-02-02T21:30:00Z,28.1324,-97.0345,67.9,1111122 
TCOON,ioos:station:TCOON:146:1,2017-02-02T22:30:00Z,28.1324,-97.0345,60.2,1111122 
TCOON,ioos:station:TCOON:146:1,2017-02-02T23:30:00Z,28.1324,-97.0345,63.6,1111122 
TCOON,ioos:station:TCOON:146:1,2017-02-03T00:30:00Z,28.1324,-97.0345,59.3,1111122 
TCOON,ioos:station:TCOON:146:1,2017-02-03T03:30:00Z,28.1324,-97.0345,59.3,1111122 
TCOON,ioos:station:TCOON:146:1,2017-02-03T04:30:00Z,28.1324,-97.0345,62.1,1111122 
TCOON,ioos:station:TCOON:146:1,2017-02-03T06:30:00Z,28.1324,-97.0345,58.5,1111122 
TCOON,ioos:station:TCOON:146:1,2017-02-03T08:30:00Z,28.1324,-97.0345,62.2,1111122 
TCOON,ioos:station:TCOON:146:1,2017-02-03T09:30:00Z,28.1324,-97.0345,63.7,1111122 
TCOON,ioos:station:TCOON:146:1,2017-02-03T11:30:00Z,28.1324,-97.0345,73.4,1111122 
TCOON,ioos:station:TCOON:146:1,2017-02-03T12:30:00Z,28.1324,-97.0345,75.9,1111122 
TCOON,ioos:station:TCOON:146:1,2017-02-03T13:30:00Z,28.1324,-97.0345,79.5,1111122 
TCOON,ioos:station:TCOON:146:1,2017-02-03T14:30:00Z,28.1324,-97.0345,82.8,1111122 
TCOON,ioos:station:TCOON:146:1,2017-02-03T15:30:00Z,28.1324,-97.0345,83.3,1111122 
TCOON,ioos:station:TCOON:146:1,2017-02-03T16:30:00Z,28.1324,-97.0345,83.1,1111122 
TCOON,ioos:station:TCOON:146:1,2017-02-03T17:30:00Z,28.1324,-97.0345,81.5,1111122 
TCOON,ioos:station:TCOON:146:1,2017-02-03T18:30:00Z,28.1324,-97.0345,82.0,1111122 
TCOON,ioos:station:TCOON:146:1,2017-02-03T19:30:00Z,28.1324,-97.0345,80.7,1111122 
TCOON,ioos:station:TCOON:146:1,2017-02-03T20:30:00Z,28.1324,-97.0345,76.3,1111122 
TCOON,ioos:station:TCOON:146:1,2017-02-03T21:30:00Z,28.1324,-97.0345,72.4,1111122 
TCOON,ioos:station:TCOON:146:1,2017-02-03T22:30:00Z,28.1324,-97.0345,71.4,1111122 
TCOON,ioos:station:TCOON:146:1,2017-02-03T23:30:00Z,28.1324,-97.0345,71.7,1111122 
TCOON,ioos:station:TCOON:146:1,2017-02-04T00:30:00Z,28.1324,-97.0345,71.1,1111122 
TCOON,ioos:station:TCOON:146:1,2017-02-04T01:30:00Z,28.1324,-97.0345,69.4,1111122 
TCOON,ioos:station:TCOON:146:1,2017-02-04T02:30:00Z,28.1324,-97.0345,70.3,1111122 
TCOON,ioos:station:TCOON:146:1,2017-02-04T03:30:00Z,28.1324,-97.0345,70.5,1111122 
TCOON,ioos:station:TCOON:146:1,2017-02-04T05:30:00Z,28.1324,-97.0345,71.6,1111122 
TCOON,ioos:station:TCOON:146:1,2017-02-04T06:30:00Z,28.1324,-97.0345,76.4,1111122 
TCOON,ioos:station:TCOON:146:1,2017-02-04T07:30:00Z,28.1324,-97.0345,76.9,1111122 
TCOON,ioos:station:TCOON:146:1,2017-02-04T08:30:00Z,28.1324,-97.0345,78.8,1111122 
TCOON,ioos:station:TCOON:146:1,2017-02-04T09:30:00Z,28.1324,-97.0345,81.9,1111122 
TCOON,ioos:station:TCOON:146:1,2017-02-04T10:30:00Z,28.1324,-97.0345,85.9,1111122 
TCOON,ioos:station:TCOON:146:1,2017-02-04T12:30:00Z,28.1324,-97.0345,87.4,1111122 
TCOON,ioos:station:TCOON:146:1,2017-02-04T13:30:00Z,28.1324,-97.0345,92.7,1111122 
TCOON,ioos:station:TCOON:146:1,2017-02-04T14:30:00Z,28.1324,-97.0345,92.6,1111122 
TCOON,ioos:station:TCOON:146:1,2017-02-04T16:30:00Z,28.1324,-97.0345,93.6,1111122 
TCOON,ioos:station:TCOON:146:1,2017-02-04T17:30:00Z,28.1324,-97.0345,94.8,1111122 
TCOON,ioos:station:TCOON:146:1,2017-02-04T18:30:00Z,28.1324,-97.0345,95.5,1111122 
TCOON,ioos:station:TCOON:146:1,2017-02-04T19:30:00Z,28.1324,-97.0345,97.3,1111122 
TCOON,ioos:station:TCOON:146:1,2017-02-04T20:30:00Z,28.1324,-97.0345,96.7,1111122 
TCOON,ioos:station:TCOON:146:1,2017-02-04T22:30:00Z,28.1324,-97.0345,97.8,1111122 
TCOON,ioos:station:TCOON:146:1,2017-02-05T03:30:00Z,28.1324,-97.0345,97.6,1111122 
TCOON,ioos:station:TCOON:146:1,2017-02-05T04:30:00Z,28.1324,-97.0345,95.9,1111122 
TCOON,ioos:station:TCOON:146:1,2017-02-05T06:30:00Z,28.1324,-97.0345,97.2,1111122 
TCOON,ioos:station:TCOON:146:1,2017-02-05T07:30:00Z,28.1324,-97.0345,98.0,1111122 
TCOON,ioos:station:TCOON:146:1,2017-02-05T10:30:00Z,28.1324,-97.0345,98.7,1111122 
TCOON,ioos:station:TCOON:146:1,2017-02-05T11:30:00Z,28.1324,-97.0345,99.1,1111122 
TCOON,ioos:station:TCOON:146:1,2017-02-05T12:30:00Z,28.1324,-97.0345,99.3,1111122 
TCOON,ioos:station:TCOON:146:1,2017-02-05T13:30:00Z,28.1324,-97.0345,99.9,1111122 
TCOON,ioos:station:TCOON:146:1,2017-02-05T16:30:00Z,28.1324,-97.0345,99.2,1111122 
TCOON,ioos:station:TCOON:146:1,2017-02-05T17:30:00Z,28.1324,-97.0345,96.1,1111122 
TCOON,ioos:station:TCOON:146:1,2017-02-05T19:30:00Z,28.1324,-97.0345,85.3,1111122 
TCOON,ioos:station:TCOON:146:1,2017-02-05T20:30:00Z,28.1324,-97.0345,84.8,1111122 
TCOON,ioos:station:TCOON:146:1,2017-02-05T21:30:00Z,28.1324,-97.0345,87.6,1111122 
TCOON,ioos:station:TCOON:146:1,2017-02-05T22:30:00Z,28.1324,-97.0345,90.9,1111122 
TCOON,ioos:station:TCOON:146:1,2017-02-05T23:30:00Z,28.1324,-97.0345,92.0,1111122 
TCOON,ioos:station:TCOON:146:1,2017-02-06T10:30:00Z,28.1324,-97.0345,98.2,1111122 
TCOON,ioos:station:TCOON:146:1,2017-02-06T11:30:00Z,28.1324,-97.0345,99.1,1111122 
TCOON,ioos:station:TCOON:146:1,2017-02-07T21:30:00Z,28.1324,-97.0345,83.6,1111122 
TCOON,ioos:station:TCOON:146:1,2017-02-08T01:30:00Z,28.1324,-97.0345,94.8,1111122 
TCOON,ioos:station:TCOON:146:1,2017-02-08T08:30:00Z,28.1324,-97.0345,98.6,1111122 
TCOON,ioos:station:TCOON:146:1,2017-02-12T18:30:00Z,28.1324,-97.0345,89.9,1111122 
TCOON,ioos:station:TCOON:146:1,2017-02-12T22:30:00Z,28.1324,-97.0345,86.1,1111122 
TCOON,ioos:station:TCOON:146:1,2017-02-13T07:30:00Z,28.1324,-97.0345,97.2,1111122 
TCOON,ioos:station:TCOON:146:1,2017-02-14T13:30:00Z,28.1324,-97.0345,90.4,1111122 
TCOON,ioos:station:TCOON:146:1,2017-02-14T17:30:00Z,28.1324,-97.0345,98.1,1111122 
TCOON,ioos:station:TCOON:146:1,2017-02-15T15:30:00Z,28.1324,-97.0345,68.1,1111122 
TCOON,ioos:station:TCOON:146:1,2017-02-16T08:30:00Z,28.1324,-97.0345,69.4,1111122 
TCOON,ioos:station:TCOON:146:1,2017-02-16T13:30:00Z,28.1324,-97.0345,76.1,1111122 
TCOON,ioos:station:TCOON:146:1,2017-02-16T18:30:00Z,28.1324,-97.0345,47.9,1111122 
TCOON,ioos:station:TCOON:146:1,2017-02-16T19:30:00Z,28.1324,-97.0345,50.1,1111122 
TCOON,ioos:station:TCOON:146:1,2017-02-16T20:30:00Z,28.1324,-97.0345,47.1,1111122 
TCOON,ioos:station:TCOON:146:1,2017-02-16T21:30:00Z,28.1324,-97.0345,45.0,1111122 
TCOON,ioos:station:TCOON:146:1,2017-02-16T22:30:00Z,28.1324,-97.0345,49.0,1111122 
TCOON,ioos:station:TCOON:146:1,2017-02-17T01:30:00Z,28.1324,-97.0345,54.5,1111122 
TCOON,ioos:station:TCOON:146:1,2017-02-17T02:30:00Z,28.1324,-97.0345,56.5,1111122 
TCOON,ioos:station:TCOON:146:1,2017-02-17T03:30:00Z,28.1324,-97.0345,58.4,1111122 
TCOON,ioos:station:TCOON:146:1,2017-02-17T04:30:00Z,28.1324,-97.0345,60.8,1111122 
TCOON,ioos:station:TCOON:146:1,2017-02-17T05:30:00Z,28.1324,-97.0345,68.9,1111122 
TCOON,ioos:station:TCOON:146:1,2017-02-17T06:30:00Z,28.1324,-97.0345,73.7,1111122 
TCOON,ioos:station:TCOON:146:1,2017-02-17T07:30:00Z,28.1324,-97.0345,80.3,1111122 
TCOON,ioos:station:TCOON:146:1,2017-02-17T08:30:00Z,28.1324,-97.0345,81.4,1111122 
TCOON,ioos:station:TCOON:146:1,2017-02-17T09:30:00Z,28.1324,-97.0345,85.8,1111122 
TCOON,ioos:station:TCOON:146:1,2017-02-17T10:30:00Z,28.1324,-97.0345,91.7,1111122 
TCOON,ioos:station:TCOON:146:1,2017-02-17T11:30:00Z,28.1324,-97.0345,88.4,1111122 
TCOON,ioos:station:TCOON:146:1,2017-02-17T12:30:00Z,28.1324,-97.0345,90.7,1111122 
TCOON,ioos:station:TCOON:146:1,2017-02-17T13:30:00Z,28.1324,-97.0345,90.1,1111122 
TCOON,ioos:station:TCOON:146:1,2017-02-17T14:30:00Z,28.1324,-97.0345,91.6,1111122 
TCOON,ioos:station:TCOON:146:1,2017-02-17T17:30:00Z,28.1324,-97.0345,95.4,1111122 
TCOON,ioos:station:TCOON:146:1,2017-02-17T18:30:00Z,28.1324,-97.0345,93.2,1111122 
TCOON,ioos:station:TCOON:146:1,2017-02-17T19:30:00Z,28.1324,-97.0345,82.1,1111122 
TCOON,ioos:station:TCOON:146:1,2017-02-17T20:30:00Z,28.1324,-97.0345,83.7,1111122 
TCOON,ioos:station:TCOON:146:1,2017-02-17T21:30:00Z,28.1324,-97.0345,84.0,1111122 
TCOON,ioos:station:TCOON:146:1,2017-02-17T22:30:00Z,28.1324,-97.0345,86.7,1111122 
TCOON,ioos:station:TCOON:146:1,2017-02-18T02:30:00Z,28.1324,-97.0345,94.0,1111122 
TCOON,ioos:station:TCOON:146:1,2017-02-18T03:30:00Z,28.1324,-97.0345,94.8,1111122 
TCOON,ioos:station:TCOON:146:1,2017-02-18T04:30:00Z,28.1324,-97.0345,94.7,1111122 
TCOON,ioos:station:TCOON:146:1,2017-02-18T05:30:00Z,28.1324,-97.0345,95.0,1111122 
TCOON,ioos:station:TCOON:146:1,2017-02-18T06:30:00Z,28.1324,-97.0345,94.7,1111122 
TCOON,ioos:station:TCOON:146:1,2017-02-18T07:30:00Z,28.1324,-97.0345,95.7,1111122 
TCOON,ioos:station:TCOON:146:1,2017-02-18T08:30:00Z,28.1324,-97.0345,95.2,1111122 
TCOON,ioos:station:TCOON:146:1,2017-02-18T09:30:00Z,28.1324,-97.0345,94.6,1111122 
TCOON,ioos:station:TCOON:146:1,2017-02-18T10:30:00Z,28.1324,-97.0345,94.9,1111122 
TCOON,ioos:station:TCOON:146:1,2017-02-18T11:30:00Z,28.1324,-97.0345,94.1,1111122 
TCOON,ioos:station:TCOON:146:1,2017-02-18T12:30:00Z,28.1324,-97.0345,92.2,1111122 
TCOON,ioos:station:TCOON:146:1,2017-02-18T13:30:00Z,28.1324,-97.0345,90.7,1111122 
TCOON,ioos:station:TCOON:146:1,2017-02-18T14:30:00Z,28.1324,-97.0345,89.9,1111122 
TCOON,ioos:station:TCOON:146:1,2017-02-18T15:30:00Z,28.1324,-97.0345,85.3,1111122 
TCOON,ioos:station:TCOON:146:1,2017-02-18T16:30:00Z,28.1324,-97.0345,81.3,1111122 
TCOON,ioos:station:TCOON:146:1,2017-02-18T17:30:00Z,28.1324,-97.0345,74.1,1111122 
TCOON,ioos:station:TCOON:146:1,2017-02-18T18:30:00Z,28.1324,-97.0345,75.3,1111122 
TCOON,ioos:station:TCOON:146:1,2017-02-18T19:30:00Z,28.1324,-97.0345,84.2,1111122 
TCOON,ioos:station:TCOON:146:1,2017-02-18T20:30:00Z,28.1324,-97.0345,85.0,1111122 
TCOON,ioos:station:TCOON:146:1,2017-02-18T21:30:00Z,28.1324,-97.0345,88.8,1111122 
TCOON,ioos:station:TCOON:146:1,2017-02-18T22:30:00Z,28.1324,-97.0345,89.5,1111122 
TCOON,ioos:station:TCOON:146:1,2017-02-18T23:30:00Z,28.1324,-97.0345,90.7,1111122 
TCOON,ioos:station:TCOON:146:1,2017-02-19T00:30:00Z,28.1324,-97.0345,92.7,1111122 
TCOON,ioos:station:TCOON:146:1,2017-02-19T01:30:00Z,28.1324,-97.0345,95.7,1111122 
TCOON,ioos:station:TCOON:146:1,2017-02-19T02:30:00Z,28.1324,-97.0345,96.0,1111122 
TCOON,ioos:station:TCOON:146:1,2017-02-19T03:30:00Z,28.1324,-97.0345,95.8,1111122 
TCOON,ioos:station:TCOON:146:1,2017-02-19T04:30:00Z,28.1324,-97.0345,95.8,1111122 
TCOON,ioos:station:TCOON:146:1,2017-02-19T05:30:00Z,28.1324,-97.0345,95.9,1111122 
TCOON,ioos:station:TCOON:146:1,2017-02-19T06:30:00Z,28.1324,-97.0345,96.4,1111122 
TCOON,ioos:station:TCOON:146:1,2017-02-19T07:30:00Z,28.1324,-97.0345,96.1,1111122 
TCOON,ioos:station:TCOON:146:1,2017-02-19T08:30:00Z,28.1324,-97.0345,96.0,1111122 
TCOON,ioos:station:TCOON:146:1,2017-02-19T09:30:00Z,28.1324,-97.0345,94.9,1111122 
TCOON,ioos:station:TCOON:146:1,2017-02-19T10:30:00Z,28.1324,-97.0345,94.5,1111122 
TCOON,ioos:station:TCOON:146:1,2017-02-19T11:30:00Z,28.1324,-97.0345,96.1,1111122 
TCOON,ioos:station:TCOON:146:1,2017-02-19T12:30:00Z,28.1324,-97.0345,95.9,1111122 
TCOON,ioos:station:TCOON:146:1,2017-02-19T13:30:00Z,28.1324,-97.0345,95.1,1111122 
TCOON,ioos:station:TCOON:146:1,2017-02-19T14:30:00Z,28.1324,-97.0345,94.3,1111122 
TCOON,ioos:station:TCOON:146:1,2017-02-19T15:30:00Z,28.1324,-97.0345,93.2,1111122 
TCOON,ioos:station:TCOON:146:1,2017-02-19T16:30:00Z,28.1324,-97.0345,92.0,1111122 
TCOON,ioos:station:TCOON:146:1,2017-02-19T17:30:00Z,28.1324,-97.0345,92.1,1111122 
TCOON,ioos:station:TCOON:146:1,2017-02-19T18:30:00Z,28.1324,-97.0345,91.6,1111122 
TCOON,ioos:station:TCOON:146:1,2017-02-19T19:30:00Z,28.1324,-97.0345,92.2,1111122 
TCOON,ioos:station:TCOON:146:1,2017-02-19T20:30:00Z,28.1324,-97.0345,92.2,1111122 
TCOON,ioos:station:TCOON:146:1,2017-02-19T21:30:00Z,28.1324,-97.0345,92.6,1111122 
TCOON,ioos:station:TCOON:146:1,2017-02-19T22:30:00Z,28.1324,-97.0345,92.1,1111122 
TCOON,ioos:station:TCOON:146:1,2017-02-19T23:30:00Z,28.1324,-97.0345,92.1,1111122 
TCOON,ioos:station:TCOON:146:1,2017-02-20T00:30:00Z,28.1324,-97.0345,92.9,1111122 
TCOON,ioos:station:TCOON:146:1,2017-02-20T01:30:00Z,28.1324,-97.0345,93.2,1111122 
TCOON,ioos:station:TCOON:146:1,2017-02-20T02:30:00Z,28.1324,-97.0345,93.3,1111122 
TCOON,ioos:station:TCOON:146:1,2017-02-20T03:30:00Z,28.1324,-97.0345,93.1,1111122 
TCOON,ioos:station:TCOON:146:1,2017-02-20T04:30:00Z,28.1324,-97.0345,93.2,1111122 
TCOON,ioos:station:TCOON:146:1,2017-02-20T05:30:00Z,28.1324,-97.0345,93.7,1111122 
TCOON,ioos:station:TCOON:146:1,2017-02-20T06:30:00Z,28.1324,-97.0345,92.7,1111122 
TCOON,ioos:station:TCOON:146:1,2017-02-20T07:30:00Z,28.1324,-97.0345,93.8,1111122 
TCOON,ioos:station:TCOON:146:1,2017-02-20T08:30:00Z,28.1324,-97.0345,92.9,1111122 
TCOON,ioos:station:TCOON:146:1,2017-02-20T09:30:00Z,28.1324,-97.0345,95.0,1111122 
TCOON,ioos:station:TCOON:146:1,2017-02-20T10:30:00Z,28.1324,-97.0345,92.9,1111122 
TCOON,ioos:station:TCOON:146:1,2017-02-20T11:30:00Z,28.1324,-97.0345,96.9,1111122 
TCOON,ioos:station:TCOON:146:1,2017-02-20T12:30:00Z,28.1324,-97.0345,95.4,1111122 
TCOON,ioos:station:TCOON:146:1,2017-02-20T13:30:00Z,28.1324,-97.0345,93.8,1111122 
TCOON,ioos:station:TCOON:146:1,2017-02-20T14:30:00Z,28.1324,-97.0345,93.9,1111122 
TCOON,ioos:station:TCOON:146:1,2017-02-20T15:30:00Z,28.1324,-97.0345,93.6,1111122 
TCOON,ioos:station:TCOON:146:1,2017-02-20T16:30:00Z,28.1324,-97.0345,93.0,1111122 
TCOON,ioos:station:TCOON:146:1,2017-02-20T17:30:00Z,28.1324,-97.0345,93.3,1111122 
TCOON,ioos:station:TCOON:146:1,2017-02-20T18:30:00Z,28.1324,-97.0345,89.4,1111122 
TCOON,ioos:station:TCOON:146:1,2017-02-20T19:30:00Z,28.1324,-97.0345,89.5,1111122 
TCOON,ioos:station:TCOON:146:1,2017-02-20T20:30:00Z,28.1324,-97.0345,87.4,1111122 
TCOON,ioos:station:TCOON:146:1,2017-02-20T21:30:00Z,28.1324,-97.0345,86.2,1111122 
TCOON,ioos:station:TCOON:146:1,2017-02-20T22:30:00Z,28.1324,-97.0345,79.3,1111122 
TCOON,ioos:station:TCOON:146:1,2017-02-20T23:30:00Z,28.1324,-97.0345,79.5,1111122 
TCOON,ioos:station:TCOON:146:1,2017-02-21T00:30:00Z,28.1324,-97.0345,80.4,1111122 
TCOON,ioos:station:TCOON:146:1,2017-02-21T01:30:00Z,28.1324,-97.0345,83.4,1111122 
TCOON,ioos:station:TCOON:146:1,2017-02-21T02:30:00Z,28.1324,-97.0345,84.0,1111122 
TCOON,ioos:station:TCOON:146:1,2017-02-21T03:30:00Z,28.1324,-97.0345,85.5,1111122 
TCOON,ioos:station:TCOON:146:1,2017-02-21T04:30:00Z,28.1324,-97.0345,86.6,1111122 
TCOON,ioos:station:TCOON:146:1,2017-02-21T05:30:00Z,28.1324,-97.0345,87.6,1111122 
TCOON,ioos:station:TCOON:146:1,2017-02-21T06:30:00Z,28.1324,-97.0345,87.5,1111122 
TCOON,ioos:station:TCOON:146:1,2017-02-21T07:30:00Z,28.1324,-97.0345,90.7,1111122 
TCOON,ioos:station:TCOON:146:1,2017-02-21T08:30:00Z,28.1324,-97.0345,92.9,1111122 
TCOON,ioos:station:TCOON:146:1,2017-02-21T09:30:00Z,28.1324,-97.0345,89.5,1111122 
TCOON,ioos:station:TCOON:146:1,2017-02-21T10:30:00Z,28.1324,-97.0345,80.8,1111122 
TCOON,ioos:station:TCOON:146:1,2017-02-21T11:30:00Z,28.1324,-97.0345,68.5,1111122 
TCOON,ioos:station:TCOON:146:1,2017-02-21T12:30:00Z,28.1324,-97.0345,68.8,1111122 
TCOON,ioos:station:TCOON:146:1,2017-02-21T13:30:00Z,28.1324,-97.0345,66.7,1111122 
TCOON,ioos:station:TCOON:146:1,2017-02-21T14:30:00Z,28.1324,-97.0345,65.2,1111122 
TCOON,ioos:station:TCOON:146:1,2017-02-21T15:30:00Z,28.1324,-97.0345,58.9,1111122 
TCOON,ioos:station:TCOON:146:1,2017-02-21T16:30:00Z,28.1324,-97.0345,44.6,1111122 
TCOON,ioos:station:TCOON:146:1,2017-02-21T17:30:00Z,28.1324,-97.0345,40.9,1111122 
TCOON,ioos:station:TCOON:146:1,2017-02-21T18:30:00Z,28.1324,-97.0345,28.2,1111122 
TCOON,ioos:station:TCOON:146:1,2017-02-21T19:30:00Z,28.1324,-97.0345,30.2,1111122 
TCOON,ioos:station:TCOON:146:1,2017-02-21T20:30:00Z,28.1324,-97.0345,28.6,1111122 
TCOON,ioos:station:TCOON:146:1,2017-02-21T21:30:00Z,28.1324,-97.0345,28.9,1111122 
TCOON,ioos:station:TCOON:146:1,2017-02-21T22:30:00Z,28.1324,-97.0345,30.6,1111122 
TCOON,ioos:station:TCOON:146:1,2017-02-21T23:30:00Z,28.1324,-97.0345,37.1,1111122 
TCOON,ioos:station:TCOON:146:1,2017-02-22T00:30:00Z,28.1324,-97.0345,41.2,1111122 
TCOON,ioos:station:TCOON:146:1,2017-02-22T01:30:00Z,28.1324,-97.0345,34.3,1111122 
TCOON,ioos:station:TCOON:146:1,2017-02-22T02:30:00Z,28.1324,-97.0345,52.7,1111122 
TCOON,ioos:station:TCOON:146:1,2017-02-22T03:30:00Z,28.1324,-97.0345,48.1,1111122 
TCOON,ioos:station:TCOON:146:1,2017-02-22T04:30:00Z,28.1324,-97.0345,44.6,1111122 
TCOON,ioos:station:TCOON:146:1,2017-02-22T05:30:00Z,28.1324,-97.0345,68.6,1111122 
TCOON,ioos:station:TCOON:146:1,2017-02-22T06:30:00Z,28.1324,-97.0345,79.8,1111122 
TCOON,ioos:station:TCOON:146:1,2017-02-22T07:30:00Z,28.1324,-97.0345,80.1,1111122 
TCOON,ioos:station:TCOON:146:1,2017-02-22T08:30:00Z,28.1324,-97.0345,82.8,1111122 
TCOON,ioos:station:TCOON:146:1,2017-02-22T09:30:00Z,28.1324,-97.0345,88.7,1111122 
TCOON,ioos:station:TCOON:146:1,2017-02-22T10:30:00Z,28.1324,-97.0345,88.6,1111122 
TCOON,ioos:station:TCOON:146:1,2017-02-22T11:30:00Z,28.1324,-97.0345,68.3,1111122 
TCOON,ioos:station:TCOON:146:1,2017-02-22T12:30:00Z,28.1324,-97.0345,64.8,1111122 
TCOON,ioos:station:TCOON:146:1,2017-02-22T13:30:00Z,28.1324,-97.0345,62.4,1111122 
TCOON,ioos:station:TCOON:146:1,2017-02-22T14:30:00Z,28.1324,-97.0345,58.4,1111122 
TCOON,ioos:station:TCOON:146:1,2017-02-22T16:30:00Z,28.1324,-97.0345,58.4,1111122 
TCOON,ioos:station:TCOON:146:1,2017-02-22T17:30:00Z,28.1324,-97.0345,56.1,1111122 
TCOON,ioos:station:TCOON:146:1,2017-02-22T18:30:00Z,28.1324,-97.0345,60.3,1111122 
TCOON,ioos:station:TCOON:146:1,2017-02-22T19:30:00Z,28.1324,-97.0345,52.9,1111122 
TCOON,ioos:station:TCOON:146:1,2017-02-22T20:30:00Z,28.1324,-97.0345,44.2,1111122 
TCOON,ioos:station:TCOON:146:1,2017-02-22T21:30:00Z,28.1324,-97.0345,45.4,1111122 
TCOON,ioos:station:TCOON:146:1,2017-02-22T22:30:00Z,28.1324,-97.0345,43.7,1111122 
TCOON,ioos:station:TCOON:146:1,2017-02-22T23:30:00Z,28.1324,-97.0345,46.2,1111122 
TCOON,ioos:station:TCOON:146:1,2017-02-23T00:30:00Z,28.1324,-97.0345,55.8,1111122 
TCOON,ioos:station:TCOON:146:1,2017-02-23T01:30:00Z,28.1324,-97.0345,57.2,1111122 
TCOON,ioos:station:TCOON:146:1,2017-02-23T02:30:00Z,28.1324,-97.0345,63.0,1111122 
TCOON,ioos:station:TCOON:146:1,2017-02-23T03:30:00Z,28.1324,-97.0345,72.6,1111122 
TCOON,ioos:station:TCOON:146:1,2017-02-23T04:30:00Z,28.1324,-97.0345,77.7,1111122 
TCOON,ioos:station:TCOON:146:1,2017-02-23T05:30:00Z,28.1324,-97.0345,81.2,1111122 
TCOON,ioos:station:TCOON:146:1,2017-02-23T06:30:00Z,28.1324,-97.0345,80.5,1111122 
TCOON,ioos:station:TCOON:146:1,2017-02-23T07:30:00Z,28.1324,-97.0345,80.8,1111122 
TCOON,ioos:station:TCOON:146:1,2017-02-23T08:30:00Z,28.1324,-97.0345,83.5,1111122 
TCOON,ioos:station:TCOON:146:1,2017-02-23T09:30:00Z,28.1324,-97.0345,87.0,1111122 
TCOON,ioos:station:TCOON:146:1,2017-02-23T10:30:00Z,28.1324,-97.0345,86.1,1111122 
TCOON,ioos:station:TCOON:146:1,2017-02-23T11:30:00Z,28.1324,-97.0345,86.6,1111122 
TCOON,ioos:station:TCOON:146:1,2017-02-23T12:30:00Z,28.1324,-97.0345,90.7,1111122 
TCOON,ioos:station:TCOON:146:1,2017-02-23T13:30:00Z,28.1324,-97.0345,91.1,1111122 
TCOON,ioos:station:TCOON:146:1,2017-02-23T14:30:00Z,28.1324,-97.0345,90.4,1111122 
TCOON,ioos:station:TCOON:146:1,2017-02-23T15:30:00Z,28.1324,-97.0345,87.1,1111122 
TCOON,ioos:station:TCOON:146:1,2017-02-23T16:30:00Z,28.1324,-97.0345,84.4,1111122 
TCOON,ioos:station:TCOON:146:1,2017-02-23T17:30:00Z,28.1324,-97.0345,80.7,1111122 
TCOON,ioos:station:TCOON:146:1,2017-02-23T18:30:00Z,28.1324,-97.0345,80.1,1111122 
TCOON,ioos:station:TCOON:146:1,2017-02-23T19:30:00Z,28.1324,-97.0345,78.4,1111122 
TCOON,ioos:station:TCOON:146:1,2017-02-23T20:30:00Z,28.1324,-97.0345,79.7,1111122 
TCOON,ioos:station:TCOON:146:1,2017-02-23T21:30:00Z,28.1324,-97.0345,81.5,1111122 
TCOON,ioos:station:TCOON:146:1,2017-02-23T22:30:00Z,28.1324,-97.0345,83.8,1111122 
TCOON,ioos:station:TCOON:146:1,2017-02-23T23:30:00Z,28.1324,-97.0345,85.5,1111122 
TCOON,ioos:station:TCOON:146:1,2017-02-24T00:30:00Z,28.1324,-97.0345,88.2,1111122 
TCOON,ioos:station:TCOON:146:1,2017-02-24T01:30:00Z,28.1324,-97.0345,89.5,1111122 
TCOON,ioos:station:TCOON:146:1,2017-02-24T02:30:00Z,28.1324,-97.0345,89.0,1111122 
TCOON,ioos:station:TCOON:146:1,2017-02-24T03:30:00Z,28.1324,-97.0345,89.3,1111122 
TCOON,ioos:station:TCOON:146:1,2017-02-24T04:30:00Z,28.1324,-97.0345,90.7,1111122 
TCOON,ioos:station:TCOON:146:1,2017-02-24T05:30:00Z,28.1324,-97.0345,90.0,1111122 
TCOON,ioos:station:TCOON:146:1,2017-02-24T06:30:00Z,28.1324,-97.0345,89.5,1111122 
TCOON,ioos:station:TCOON:146:1,2017-02-24T07:30:00Z,28.1324,-97.0345,88.6,1111122 
TCOON,ioos:station:TCOON:146:1,2017-02-24T08:30:00Z,28.1324,-97.0345,88.1,1111122 
TCOON,ioos:station:TCOON:146:1,2017-02-24T09:30:00Z,28.1324,-97.0345,87.6,1111122 
TCOON,ioos:station:TCOON:146:1,2017-02-24T10:30:00Z,28.1324,-97.0345,88.3,1111122 
TCOON,ioos:station:TCOON:146:1,2017-02-24T11:30:00Z,28.1324,-97.0345,87.7,1111122 
TCOON,ioos:station:TCOON:146:1,2017-02-24T12:30:00Z,28.1324,-97.0345,87.5,1111122 
TCOON,ioos:station:TCOON:146:1,2017-02-24T13:30:00Z,28.1324,-97.0345,87.3,1111122 
TCOON,ioos:station:TCOON:146:1,2017-02-24T14:30:00Z,28.1324,-97.0345,86.9,1111122 
TCOON,ioos:station:TCOON:146:1,2017-02-24T15:30:00Z,28.1324,-97.0345,83.6,1111122 
TCOON,ioos:station:TCOON:146:1,2017-02-24T16:30:00Z,28.1324,-97.0345,80.2,1111122 
TCOON,ioos:station:TCOON:146:1,2017-02-24T17:30:00Z,28.1324,-97.0345,80.2,1111122 
TCOON,ioos:station:TCOON:146:1,2017-02-24T18:30:00Z,28.1324,-97.0345,76.1,1111122 
TCOON,ioos:station:TCOON:146:1,2017-02-24T19:30:00Z,28.1324,-97.0345,68.5,1111122 
TCOON,ioos:station:TCOON:146:1,2017-02-24T20:30:00Z,28.1324,-97.0345,42.0,1111122 
TCOON,ioos:station:TCOON:146:1,2017-02-24T21:30:00Z,28.1324,-97.0345,39.8,1111122 
TCOON,ioos:station:TCOON:146:1,2017-02-24T22:30:00Z,28.1324,-97.0345,30.5,1111122 
TCOON,ioos:station:TCOON:146:1,2017-02-24T23:30:00Z,28.1324,-97.0345,34.4,1111122 
TCOON,ioos:station:TCOON:146:1,2017-02-25T00:30:00Z,28.1324,-97.0345,40.1,1111122 
TCOON,ioos:station:TCOON:146:1,2017-02-25T01:30:00Z,28.1324,-97.0345,40.3,1111122 
TCOON,ioos:station:TCOON:146:1,2017-02-25T02:30:00Z,28.1324,-97.0345,49.2,1111122 
TCOON,ioos:station:TCOON:146:1,2017-02-25T03:30:00Z,28.1324,-97.0345,48.7,1111122 
TCOON,ioos:station:TCOON:146:1,2017-02-25T04:30:00Z,28.1324,-97.0345,54.6,1111122 
TCOON,ioos:station:TCOON:146:1,2017-02-25T05:30:00Z,28.1324,-97.0345,56.7,1111122 
TCOON,ioos:station:TCOON:146:1,2017-02-25T06:30:00Z,28.1324,-97.0345,63.0,1111122 